[[{"header":{"parameterUnit":"m.s-1","parameterCategory":1,"la1":30.2991,"la2":30.254,"lo1":-89.0895,"lo2":-89.0444,"dy":0.0017,"dx":0.0017,"nx":28,"ny":28,"refTime":"2024-05-25T09:00:00:Z","depth":0,"parameterNumber":2,"parameterNumberName":"U-component_of_WINDS"},"data":[0,0,0,0,0,0,0,0,0,0,0,0,0,0,0,0,0,0,0,0,0,0,0,0,0,0,0,0,0,0,0,0,0,0,0,0,0,0,0,0,0,0,0,0,0,0,0,0,0,0,0,0,0,0,0,0,0,0,0.8525,0.8525,0,0.8561,0.8561,0.8561,0.8541,0.854,0.8539,0.8538,0.8575,0.8577,0.8579,0,0,0,0,0,0,0,0,0,0,0,0,0,0.8439,0.8441,0.8525,0.8525,0.8526,0.856,0.8561,0.8561,0.8541,0.854,0.8539,0.8538,0.8575,0.8577,0.8579,0,0,0,0,0,0,0,0,0,0,0,0,0,0.8476,0.8441,0.8525,0.852,0.852,0.856,0.8561,0.8562,0.8542,0.854,0.8539,0.8537,0.8574,0.8577,0.8579,0.8627,0,0,0.8588,0.8589,0,0,0,0,0,0,0,0,0.8473,0.8479,0.852,0.852,0.852,0.8545,0.8544,0.8583,0.8542,0.8533,0.8538,0.8537,0.8566,0.857,0.858,0.8628,0.863,0.8588,0.859,0.8591,0.8592,0,0,0,0,0,0,0,0.8471,0.8477,0.8539,0.8521,0.8521,0.8516,0.8519,0.8551,0.8558,0.8534,0.8533,0.8537,0.8566,0.8577,0.858,0.8631,0.8588,0.8591,0.8593,0.8594,0.8718,0.8719,0,0,0,0,0,0,0.8469,0.8475,0.8538,0.854,0.8493,0.8519,0.8523,0.8539,0.8557,0.8559,0.8538,0.8536,0.8573,0.8577,0.8582,0.8637,0.8591,0.8594,0.8596,0.8716,0.8718,0.872,0,0,0,0,0,0,0.8467,0.8475,0.8536,0.8507,0.8515,0.8522,0.854,0.854,0.8551,0.8561,0.8562,0.8548,0.8572,0.8578,0.8615,0.8638,0.8595,0.8598,0.8714,0.8717,0.8719,0.8749,0,0,0,0,0,0,0.8465,0.8474,0.8492,0.8508,0.8516,0.857,0.8541,0.8542,0.8556,0.8553,0.857,0.8572,0.8571,0.8611,0.8618,0.8641,0.86,0.8712,0.8716,0.8718,0.8746,0.8752,0.8757,0,0,0,0,0,0.8462,0.85,0.8493,0.8501,0.8539,0.8571,0.8576,0.8574,0.8558,0.8576,0.8582,0.8571,0.8634,0.8615,0.8623,0.8647,0.8711,0.8715,0.8718,0.8743,0.8751,0.8757,0,0,0,0,0,0,0.8487,0.8502,0.8495,0.8539,0.8554,0.8568,0.8591,0.8583,0.8603,0.8599,0.8597,0.8601,0.8639,0.8647,0.8625,0.8693,0.867,0.8675,0.8686,0.8694,0.8699,0.8696,0.8602,0,0,0,0,0,0.8498,0.8523,0.8534,0.8572,0.858,0.8584,0.8598,0.8595,0.8611,0.8617,0.8626,0.8641,0.8664,0.8679,0.8701,0.8747,0.8749,0.8767,0.8773,0.8777,0.8782,0.8805,0.8812,0.8732,0.8732,0.8732,0,0,0.8521,0.8532,0.8548,0.8578,0.8589,0.8614,0.859,0.8618,0.8636,0.8621,0.8657,0.8664,0.868,0.8722,0.874,0.8729,0.8805,0.8782,0.8785,0.8787,0.8809,0.8817,0.8824,0.8734,0.8734,0.8733,0,0,0.8575,0.8586,0.8618,0.863,0.8647,0.8649,0.8657,0.8671,0.8675,0.8711,0.8699,0.8721,0.8762,0.8773,0.8785,0.8841,0.8832,0.8849,0.8878,0.8901,0.8907,0.8912,0.8931,0.8939,0.8853,0.8853,0.8853,0,0.8601,0.8639,0.8636,0.8664,0.8677,0.8664,0.8696,0.8708,0.8731,0.874,0.8727,0.8776,0.8787,0.883,0.8843,0.8853,0.8861,0.8847,0.8906,0.8912,0.8917,0.8935,0.8942,0.8855,0.8855,0.8855,0.8855,0,0.8669,0.8695,0.8719,0.8741,0.8757,0.8787,0.8788,0.8805,0.88,0.8804,0.8839,0.8851,0.8874,0.8885,0.8881,0.8927,0.8919,0.8906,0.8883,0.8927,0.8943,0.895,0.8858,0.8857,0.8857,0.8856,0,0,0.8741,0.876,0.8769,0.8778,0.8795,0.8815,0.8844,0.8867,0.888,0.8896,0.892,0.8953,0.8941,0.8954,0.8951,0.8971,0.9014,0.8956,0.8956,0.8965,0.9063,0.9072,0.908,0.9007,0.9009,0.901,0.9061,0,0.8795,0.8845,0.8843,0.889,0.8914,0.8901,0.8926,0.8939,0.8943,0.8963,0.8967,0.899,0.8973,0.898,0.9,0.9005,0.9033,0.9001,0.9029,0.903,0.9024,0.9089,0.9099,0.9147,0.9068,0.9069,0.907,0,0.8865,0.8883,0.8932,0.8944,0.8954,0.8977,0.8996,0.9016,0.903,0.9031,0.9044,0.9038,0.9067,0.9043,0.9082,0.906,0.9071,0.9075,0.9077,0.9079,0.9052,0.9092,0.9163,0.9169,0.9081,0.908,0.9079,0,0.891,0.8947,0.8981,0.8989,0.9005,0.9021,0.9028,0.904,0.9053,0.9071,0.9079,0.9099,0.911,0.9126,0.9125,0.9108,0.9163,0.914,0.9164,0.9164,0.9176,0.9175,0.9249,0.9185,0.9185,0.9185,0.9185,0,0.8971,0.9001,0.9001,0.9022,0.9055,0.9052,0.9085,0.909,0.9101,0.9122,0.9113,0.9133,0.9131,0.9151,0.915,0.9182,0.9187,0.9188,0.9187,0.9188,0.9188,0.9195,0.9191,0.9187,0.9186,0.9186,0.9186,0,0.9027,0.9029,0.9064,0.9076,0.9079,0.9103,0.9113,0.9132,0.9134,0.9161,0.9167,0.9171,0.9194,0.9194,0.9221,0.922,0.9258,0.9254,0.9253,0.9252,0.9276,0.9273,0.9356,0.9366,0.9296,0.9297,0.9298,0,0.9065,0.9088,0.9101,0.9115,0.9123,0.9144,0.9157,0.9155,0.9169,0.9185,0.9202,0.9224,0.9241,0.9278,0.9283,0.9303,0.9298,0.9326,0.9301,0.9301,0.9297,0.9296,0.9297,0.9331,0.9331,0.9332,0.9332,0,0.9131,0.913,0.915,0.9169,0.9185,0.92,0.9214,0.9225,0.9224,0.924,0.9263,0.9276,0.9302,0.9323,0.9342,0.9349,0.934,0.934,0.9347,0.9347,0.9345,0.9345,0.9265,0.9338,0.9338,0.9337,0.9337,0.9337,0.9179,0.9198,0.921,0.9231,0.9241,0.9254,0.9272,0.9277,0.9296,0.9317,0.9314,0.9339,0.9351,0.9375,0.9384,0.9403,0.9393,0.9403,0.9405,0.9407,0.9409,0.9343,0.9406,0.9406,0.9406,0.9406,0.9406,0,0.9243,0.925,0.927,0.9289,0.9306,0.9296,0.9311,0.9325,0.9347,0.9359,0.9376,0.9401,0.9422,0.9428,0.9447,0.9461,0.9457,0.9466,0.9465,0.9466,0.9417,0.9409,0.9469,0.9469,0.9469,0.9469,0.9469,0.9469,0.9279,0.931,0.9311,0.9347,0.9353,0.9378,0.9387,0.9398,0.9408,0.9436,0.9453,0.9457,0.9466,0.9486,0.9504,0.9505,0.9512,0.9522,0.9521,0.9476,0.947,0.9464,0.9456,0.9524,0.9524,0.9568,0.9569,0.9569]},{"header":{"parameterUnit":"m.s-1","parameterCategory":1,"la1":30.2991,"la2":30.254,"lo1":-89.0895,"lo2":-89.0444,"dy":0.0017,"dx":0.0017,"nx":28,"ny":28,"refTime":"2024-05-25T09:00:00:Z","depth":0,"parameterNumber":3,"parameterNumberName":"V-component_of_WINDS"},"data":[0,0,0,0,0,0,0,0,0,0,0,0,0,0,0,0,0,0,0,0,0,0,0,0,0,0,0,0,0,0,0,0,0,0,0,0,0,0,0,0,0,0,0,0,0,0,0,0,0,0,0,0,0,0,0,0,0,0,4.806,4.806,0,4.8118,4.8118,4.8119,4.8098,4.8097,4.8096,4.8094,4.815,4.8152,4.8155,0,0,0,0,0,0,0,0,0,0,0,0,0,4.7928,4.793,4.806,4.8061,4.8061,4.8117,4.8118,4.8119,4.8098,4.8097,4.8095,4.8094,4.8149,4.8152,4.8155,0,0,0,0,0,0,0,0,0,0,0,0,0,4.7985,4.7931,4.806,4.8058,4.8058,4.8117,4.8118,4.8119,4.8099,4.8097,4.8095,4.8093,4.8148,4.8152,4.8156,4.8219,0,0,4.8168,4.8169,0,0,0,0,0,0,0,0,4.7982,4.799,4.8057,4.8058,4.8059,4.8099,4.8092,4.8152,4.8099,4.8083,4.8094,4.8092,4.8134,4.8139,4.8154,4.8221,4.8224,4.8168,4.8171,4.8172,4.8173,0,0,0,0,0,0,0,4.7978,4.7987,4.8082,4.8058,4.8059,4.8053,4.8059,4.8103,4.8119,4.8084,4.8083,4.809,4.8134,4.815,4.8155,4.8224,4.8168,4.8172,4.8174,4.8176,4.8345,4.8347,0,0,0,0,0,0,4.7974,4.7984,4.8081,4.8084,4.8015,4.8057,4.8063,4.8088,4.8118,4.8121,4.8092,4.8089,4.8144,4.815,4.8157,4.8232,4.8172,4.8176,4.8178,4.8343,4.8345,4.8348,0,0,0,0,0,0,4.7971,4.7983,4.8078,4.8034,4.8046,4.8061,4.8088,4.809,4.8106,4.8124,4.8126,4.8106,4.8143,4.8151,4.8203,4.8234,4.8178,4.8181,4.834,4.8344,4.8347,4.8383,0,0,0,0,0,0,4.7968,4.7982,4.8007,4.8035,4.8048,4.8125,4.809,4.8092,4.8113,4.811,4.8138,4.814,4.8142,4.8198,4.8207,4.8238,4.8184,4.8338,4.8342,4.8346,4.8379,4.8387,4.8394,0,0,0,0,0,4.7963,4.8015,4.8009,4.802,4.808,4.8127,4.8135,4.8137,4.8116,4.8141,4.8152,4.8139,4.8229,4.8203,4.8214,4.8246,4.8336,4.8341,4.8345,4.8376,4.8386,4.8394,0,0,0,0,0,0,4.7989,4.8018,4.8012,4.8074,4.8099,4.8124,4.8155,4.8147,4.8177,4.8173,4.8173,4.8179,4.8233,4.8245,4.8216,4.8308,4.8279,4.8286,4.8299,4.8308,4.8315,4.8311,4.8188,0,0,0,0,0,4.8002,4.804,4.8062,4.8115,4.8128,4.8139,4.816,4.816,4.8184,4.8194,4.8209,4.8232,4.8266,4.8287,4.8319,4.8381,4.8386,4.8409,4.8416,4.8422,4.8428,4.846,4.847,4.8363,4.8363,4.8363,0,0,4.803,4.805,4.8073,4.8121,4.814,4.8177,4.8148,4.8188,4.8216,4.82,4.825,4.8262,4.8288,4.8345,4.8371,4.8356,4.8458,4.8428,4.8432,4.8435,4.8466,4.8476,4.8485,4.8366,4.8366,4.8365,0,0,4.8098,4.8118,4.8164,4.8183,4.8212,4.822,4.8231,4.8257,4.8265,4.8316,4.8304,4.8336,4.8393,4.8412,4.8429,4.8504,4.8493,4.8515,4.8553,4.8584,4.8593,4.86,4.8626,4.8636,4.8521,4.8521,4.8521,0,4.8128,4.8185,4.8188,4.8229,4.825,4.8239,4.8284,4.8302,4.834,4.8354,4.8338,4.841,4.8426,4.8487,4.8505,4.852,4.8531,4.8511,4.8592,4.8599,4.8606,4.8631,4.8641,4.8523,4.8523,4.8523,4.8522,0,4.8219,4.8259,4.8292,4.833,4.8354,4.8397,4.8406,4.843,4.8427,4.8436,4.8487,4.8507,4.8542,4.8556,4.8554,4.8617,4.8607,4.8591,4.8562,4.8619,4.8642,4.8651,4.8526,4.8526,4.8525,4.8524,0,0,4.8305,4.8345,4.8357,4.8374,4.8405,4.8435,4.8477,4.8512,4.8533,4.8559,4.8593,4.8642,4.8628,4.8647,4.8647,4.8675,4.8732,4.8655,4.8656,4.8668,4.8801,4.8812,4.8823,4.8725,4.8727,4.8728,4.8799,0,4.8376,4.8452,4.8455,4.8524,4.8559,4.8549,4.8585,4.8608,4.8617,4.8647,4.8656,4.8691,4.867,4.8682,4.8709,4.8719,4.8759,4.8714,4.8756,4.8757,4.8749,4.8836,4.8848,4.8913,4.8808,4.8809,4.8811,0,4.8468,4.8499,4.8571,4.8597,4.8612,4.8645,4.8677,4.8707,4.8732,4.8736,4.8758,4.8753,4.8795,4.8764,4.8821,4.8791,4.8808,4.8815,4.8818,4.8821,4.8787,4.8841,4.8934,4.8944,4.8825,4.8824,4.8823,0,4.8523,4.8582,4.8632,4.8647,4.8679,4.8702,4.8716,4.8739,4.876,4.8788,4.8801,4.8833,4.885,4.8874,4.8878,4.8856,4.8935,4.8904,4.8938,4.8938,4.8955,4.8954,4.9052,4.8967,4.8967,4.8967,4.8967,0,4.8601,4.8645,4.8657,4.8688,4.8737,4.874,4.8788,4.88,4.8821,4.8853,4.8845,4.8875,4.8878,4.8909,4.8912,4.8958,4.8966,4.8969,4.8969,4.897,4.8969,4.8981,4.8976,4.8969,4.8969,4.8968,4.8968,0,4.867,4.868,4.8735,4.876,4.8768,4.8803,4.8824,4.8853,4.8861,4.8902,4.8911,4.8924,4.8959,4.8965,4.9007,4.9009,4.9063,4.9059,4.9055,4.9055,4.9088,4.9084,4.9196,4.9211,4.9117,4.9118,4.9119,0,4.8719,4.8753,4.8783,4.8804,4.882,4.8855,4.8876,4.888,4.8903,4.8933,4.8958,4.8993,4.9021,4.9078,4.909,4.9121,4.9117,4.9154,4.9122,4.9121,4.9117,4.9115,4.9118,4.916,4.9161,4.9162,4.9163,0,4.8804,4.8808,4.884,4.8874,4.89,4.8927,4.8952,4.897,4.8977,4.9002,4.9039,4.9061,4.9104,4.9138,4.9169,4.9182,4.9173,4.9173,4.9182,4.9183,4.9179,4.9181,4.9072,4.917,4.917,4.9169,4.9169,4.9168,4.8864,4.8894,4.892,4.8955,4.8975,4.8999,4.9027,4.9039,4.9071,4.9107,4.9107,4.9147,4.9169,4.9211,4.9225,4.9256,4.9244,4.9257,4.9261,4.9264,4.9267,4.9175,4.9261,4.9261,4.9261,4.9261,4.9261,0,4.8949,4.8965,4.8998,4.9034,4.9062,4.9053,4.908,4.9103,4.9139,4.9162,4.919,4.9232,4.9265,4.928,4.9312,4.9333,4.933,4.9341,4.934,4.9342,4.9276,4.9264,4.9343,4.9343,4.9343,4.9343,4.9343,4.9343,4.8996,4.9045,4.9052,4.911,4.9125,4.9166,4.9182,4.9203,4.9221,4.9269,4.9297,4.9306,4.9325,4.9359,4.9388,4.9392,4.9403,4.9417,4.9418,4.9356,4.9347,4.9339,4.9328,4.9419,4.9419,4.9482,4.9482,4.9483]}]]